Regional Weather Roundup
Issued by NWS

Home | Current Version | Previous Version | Graphics & Text | Print | Product List | Glossary Off
Versions: 1 2 3 4 5 6 7 8 9 10 11 12 13 14 15 16 17 18 19 20 21 22 23 24 25 26 27 28 29 30 31 32 33 34 35 36 37 38 39 40 41 42 43 44 45 46 47 48 49 50

000
ASUS43 KTOP 271008
RWRKS

WEATHER ROUNDUP FOR KANSAS
NATIONAL WEATHER SERVICE GOODLAND KS
500 AM CDT WED AUG 27 2014

NOTE:  "FAIR" INDICATES FEW OR NO CLOUDS BELOW 12,000 FEET WITH NO
SIGNIFICANT WEATHER AND/OR OBSTRUCTIONS TO VISIBILITY.

KSZ001>006-013>018-027>032-041>047-271100-
NORTHWEST KANSAS

CITY           SKY/WX    TMP DP  RH WIND       PRES   REMARKS
GOODLAND       CLOUDY    64  63  96 E7        30.14F
HAYS           CLOUDY    72  64  78 W8        30.10S
HILL CITY      CLOUDY    70  66  87 CALM      30.12R
RUSSELL        CLOUDY    73  67  81 SW8       30.07S
$$

KSZ061>065-074>080-084>089-271100-
SOUTHWEST KANSAS

CITY           SKY/WX    TMP DP  RH WIND       PRES   REMARKS
DODGE CITY     LGT RAIN  67  64  90 SW17G24   30.15S
ELKHART          N/A     65  61  87 SE12        N/A
GARDEN CITY    LGT RAIN  67  65  93 SE13      30.13F
GREAT BEND     MOCLDY    72  63  73 W6        30.10R
LIBERAL        CLOUDY    68  63  83 E12       30.15F
PRATT          CLOUDY    70  63  78 W3        30.10S
$$

KSZ066>073-081>083-090>101-271100-
SOUTHEAST KANSAS

CITY           SKY/WX    TMP DP  RH WIND       PRES   REMARKS
CHANUTE        PTCLDY    73  66  78 S3        30.06F
COFFEYVILLE    CLEAR     73  66  78 CALM      30.05F
HUTCHINSON     PTCLDY    75  67  76 W6        30.08R
MEDICINE LODGE   N/A     75  64  68 N3        30.07R
NEWTON         PTCLDY    73  63  68 S7        30.10S
PARSONS        CLEAR     71  67  87 CALM      30.07F
WICHITA INTL   MOCLDY    73  66  78 S5        30.05F
WICHITA JABRA  PTCLDY    76  66  71 S7        30.05F
WICHITA MCCONL PTCLDY    73  69  87 S6        30.06F
WINFIELD       PTCLDY    73  66  78 S8        30.06F
$$

KSZ007>012-019>026-033>040-048>060-102>105-271100-
NORTHEAST KANSAS

CITY           SKY/WX    TMP DP  RH WIND       PRES   REMARKS
CONCORDIA      MOCLDY    70  66  87 NE3       30.07S
EMPORIA        PTCLDY    73  67  81 S7        30.05F
LAWRENCE       MOCLDY    76  72  87 SE3       30.05F
MANHATTAN      PTCLDY    74  70  87 N5        30.04F
MARYSVILLE     MOCLDY    72  70  94 CALM      30.06F
OLATHE IND     PTCLDY    73  68  84 SE7       30.07F
OLATHE EXE     PTCLDY    74  72  93 SE7       30.06F
SALINA         CLOUDY    76  68  76 SW5       30.06R
TOPEKA BILLARD MOCLDY    76  74  93 SE3       30.05F
TOPEKA FORBES  MOCLDY    75  72  90 SE6       30.05F
$$


USA.gov is the U.S. government's official web portal to all federal, state and local government web resources and services.